SCP
0 0 0 0 0 0 0 0 0 0 0 0 0 0 0 0 0 0 0 0 0 0 0 0 0 0 0 0 0 0 0 0 0 0 0 0 0 0 0 0 0 0 0
0 0 0 0 0 0 0 0 0 0 0 0 0 0 0 0 0 0 0 0 0 0 0 0 0 0 0 0 0 0 0 0 0 0 0 0 0 0 0 0 0 0 0
0 0 0 0 0 0 0 0 0 0 0 0 0 0 0 0 0 0 0 0 0 0 0 0 0 0 0 0 0 0 0 0 0 0 0 0 0 0 0 0 0 0 0
0 0 0 0 0 0 0 0 0 0 0 0 0 0 0 0 0 0 0 0 0 0 0 0 0 0 0 0 0 0 0 0 0 0 0 0 0 0 0 0 0 0 0
0 0 0 0 0 0 0 0 0 0 0 0 0 0 0 0 0 0 0 0 0 0 0 0 0 0 0 0 0 0 0 0 0 0 0 0 0 0 0 0 0 0 0
0 0 0 0 0 0 0 0 0 0 0 0 0 0 0 0 0 0 0 0 0 0 0 0 0 0 0 0 0 0 0 0 0 0 0 0 0 0 0 0 0 0 0
0 0 0 0 0 0 0 0 0 0 0 0 0 0 0 0 0 0 0 0 0 0 0 0 0 0 0 0 0 0 0 0 0 0 0 0 0 0 0 0 0 0 0
0 0 0 0 0 0 0 0 0 0 0 0 0 0 0 0 0 0 0 0 0 0 0 0 0 0 0 0 0 0 0 0 0 0 0 0 0 0 0 0 0 0 0
0 0 0 0 0 0 0 0 0 0 0 0 0 0 0 0 0 0 0 0 0 0 0 0 0 0 0 0 0 0 0 0 0 0 0 0 0 0 0 0 0 0 0
0 0 0 0 0 0 0 0 0 0 0 0 0 0 0 0 0 0 0 0 0 0 0 0 0 0 0 0 0 0 0 0 0 0 0 0 0 0 0 0 0 0 0
0 0 0 0 0 0 0 0 0 0 0 0 0 0 0 0 0 0 0 0 0 0 0 0 0 0 0 0 0 0 0 0 0 0 0 0 0 0 0 0 0 0 0
0 0 0 0 0 0 0 0 0 0 0 0 0 0 0 0 0 0 0 0 0 0 0 0 0 0 0 0 0 0 0 0 0 0 0 0 0 0 0 0 0 0 0
0 0 0 0 0 0 0 0 0 0 0 0 0 0 0 0 0 0 0 0 0 0 0 0 0 0 0 0 0 0 0 0 0 0 0 0 0 0 0 0 0 0 0
0 0 0 0 0 0 0 0 0 0 0 0 0 0 0 0 0 0 0 0 0 0 0 0 0 0 0 0 0 0 0 0 0 0 0 0 0 0 0 0 0 0 0
0 0 0 0 0 0 0 0 0 0 0 0 0 0 0 0 0 0 0 0 0 0 0 0 0 0 0 0 0 0 0 0 0 0 0 0 0 0 0 0 0 0 0
0 0 0 0 0 0 0 0 0 0 0 0 0 0 0 0 0 0 0 0 0 0 0 0 0 0 0 0 0 0 0 0 0 0 0 0 0 0 0 0 0 0 0
0 0 0 0 0 0 0 0 0 0 0 0 0 0 0 0 0 0 0 0 0 0 0 0 0 0 0 0 0 0 0 0 0 0 0 0 0 0 0 0 0 0 0
0 0 0 0 0 0 0 0 0 0 0 0 0 0 0 0 0 0 0 0 0 0 0 0 0 0 0 0 0 0 0 0 0 0 0 0 0 0 0 0 0 0 0
0 0 0 0 0 0 0 0 0 0 0 0 0 0 0 0 0 0 0 0 0 0 0 0 0 0 0 0 0 0 0 0 0 0 0 0 0 0 0 0 0 0 0
0 0 0 0 0 0 0 0 0 0 0 0 0 0 0 0 0 0 0 0 0 0 0 0 0 0 0 0 0 0 0 0 0 0 0 0 0 0 0 0 0 0 0
0 0 0 0 0 0 0 0 0 0 0 0 0 0 0 0 0 0 0 0 0 0 0 0 0 0 0 0 0 0 0 0 0 0 0 0 0 0 0 0 0 0 0
0 0 0 0 0 0 0 0 0 0 0 0 0 0 0 0 0 0 0 0 0 0 0 0 0 0 0 0 0 0 0 0 0 0 0 0 0 0 0 0 0 0 0
0 0 0 0 0 0 0 0 0 0 0 0 0 0 0 0 0 0 0 0 0 0 0 0 0 0 0 0 0 0 0 0 0 0 0 0 0 0 0 0 0 0 0
0 0 0 0 0 0 0 0 0 0 0 0 0 0 0 0 0 0 0 0 0 0 0 0 0 0 0 0 0 0 0 0 0 0 0 0 0 0 0 0 0 0 0
0 0 0 0 0 0 0 0 0 0 0 0 0 0 0 0 0 0 0 0 0 0 0 0 0 0 0 0 0 0 0 0 0 0 0 0 0 0 0 0 0 0 0
0 0 0 0 0 0 0 0 0 0 0 0 0 0 0 0 0 0 0 0 0 0 0 0 0 0 0 0 0 0 0 0 0 0 0 0 0 0 0 0 0 0 0
Wind_Speed
6 5 5 4 4 4 4 4 4 4 4 4 4 4 4 4 4 3 3 4 4 4 4 5 5 5 4 4 4 4 5 5 7 7 5 5 5 5 5 5 5 6 5
6 5 5 5 5 4 4 5 5 4 4 4 4 4 4 4 4 3 4 4 4 5 5 5 6 5 6 4 4 5 5 5 6 8 6 5 6 6 6 6 5 5 5
5 5 5 5 5 5 5 5 5 5 4 4 4 4 4 4 4 4 4 4 4 5 5 6 6 6 6 5 6 5 5 5 5 6 7 5 5 4 5 5 5 5 5
5 5 5 6 6 5 5 5 5 5 5 5 5 4 4 4 4 5 5 5 5 5 5 6 6 6 6 6 5 6 5 6 6 6 6 5 5 5 4 4 5 4 5
5 5 6 6 6 6 6 5 5 5 5 5 5 5 4 4 4 5 6 6 5 6 6 6 6 6 7 6 5 6 6 5 5 5 5 5 5 4 4 4 5 5 5
5 5 6 6 6 6 6 6 6 6 6 5 5 5 5 4 6 8 7 6 6 6 6 6 6 5 6 6 7 7 7 7 6 6 5 6 6 5 4 4 4 5 5
5 5 6 6 6 6 6 6 6 6 6 6 6 6 6 6 8 9 8 6 6 6 6 6 5 5 6 6 6 7 7 8 8 7 7 7 7 6 5 5 5 6 6
5 6 6 6 6 6 6 6 6 5 5 5 6 6 6 6 9 9 9 6 5 6 6 6 6 6 6 7 6 6 6 6 7 6 6 7 6 5 5 5 5 5 5
6 6 7 7 6 6 6 6 6 6 6 6 6 6 6 7 9 10 9 5 5 6 6 6 6 7 8 8 6 6 6 6 6 7 8 7 7 7 5 3 3 4 5
6 7 7 7 6 6 6 6 6 5 6 6 5 6 6 7 8 10 9 4 5 5 5 5 6 7 8 8 6 6 7 7 6 6 6 5 5 4 4 4 4 4 4
6 7 6 6 6 6 6 5 6 5 6 5 5 5 6 6 8 10 10 5 5 6 5 5 5 8 8 8 8 6 7 8 6 5 4 4 4 3 4 4 4 4 5
6 6 6 6 5 5 5 5 5 5 5 5 5 6 5 5 6 9 10 9 8 6 6 5 6 9 9 9 7 7 8 7 4 4 3 3 3 4 4 4 4 4 5
5 5 5 6 5 5 5 5 5 4 4 4 4 5 5 5 6 9 10 10 10 7 5 7 9 9 8 6 6 7 5 3 3 3 3 4 4 4 4 3 4 3 4
5 5 5 5 5 4 4 4 4 4 4 4 5 5 6 6 5 5 6 6 7 7 5 6 7 7 6 6 5 4 3 3 4 3 4 4 3 3 3 3 4 4 4
4 4 4 4 4 5 4 4 5 4 5 6 5 5 6 7 8 11 9 7 6 6 6 4 4 4 4 4 4 3 3 3 3 3 3 3 3 3 4 3 3 3 4
4 4 3 4 4 4 4 5 5 6 8 9 9 9 7 9 13 14 13 12 11 10 5 4 4 4 4 4 4 4 3 3 3 3 3 3 4 4 4 3 3 3 4
4 4 3 3 4 4 4 5 6 6 7 8 9 11 11 13 14 13 12 11 9 7 3 4 4 4 4 4 4 4 4 4 3 3 4 4 4 4 4 4 3 4 4
4 4 4 3 3 4 4 4 4 5 6 6 7 10 12 13 13 13 12 9 5 4 4 4 5 5 5 5 5 5 4 4 3 3 4 4 4 4 4 4 4 4 4
4 3 3 3 3 3 4 4 4 5 5 6 6 7 9 11 11 11 10 5 5 5 4 5 5 5 5 5 5 5 5 4 4 4 4 4 4 3 4 4 4 4 3
3 4 3 3 3 3 3 4 4 4 5 5 6 6 7 6 6 6 6 5 5 5 5 5 5 5 5 5 5 5 5 4 4 4 4 4 4 4 4 5 4 4 3
3 3 4 3 3 3 3 4 4 4 4 5 5 7 10 6 6 6 6 5 5 6 6 6 5 5 5 5 5 5 6 5 4 4 4 4 4 4 4 4 4 3 3
3 3 3 3 3 3 3 4 4 4 5 6 6 6 10 6 5 6 6 6 5 5 6 6 6 5 5 5 5 5 5 5 5 4 4 4 4 4 4 3 3 3 2
4 4 4 4 3 4 4 4 4 4 5 5 6 6 5 5 5 6 6 6 6 5 5 5 6 6 5 5 5 5 6 6 5 5 4 4 4 4 4 4 4 3 3
4 4 4 4 3 4 4 4 4 5 5 5 5 5 5 6 6 7 7 6 6 6 5 5 6 8 9 7 5 5 5 6 5 5 6 5 5 4 4 3 3 3 3
4 4 4 4 4 4 4 4 5 5 5 5 5 5 6 6 6 7 6 6 7 7 7 7 6 6 8 9 8 7 7 8 7 5 5 4 5 5 4 3 3 3 2
4 4 4 4 4 4 4 4 5 5 5 5 5 5 6 6 6 7 6 6 6 7 7 6 7 8 10 8 9 8 8 7 7 6 5 4 4 4 3 3 3 3 3
Wind_Direction
353 352 349 345 347 347 347 343 340 337 335 334 331 332 333 333 334 333 331 330 330 325 321 315 311 311 308 309 305 300 295 292 285 294 299 302 298 299 306 304 302 302 300
347 346 347 345 345 346 345 340 337 334 334 333 329 328 327 327 326 322 319 319 316 312 310 307 304 307 307 307 303 298 295 293 289 292 297 300 299 299 303 305 310 305 301
345 346 349 350 348 346 343 339 339 336 335 337 336 331 324 323 321 315 309 310 309 306 305 300 298 301 300 304 301 298 297 295 293 288 294 303 301 299 304 306 311 308 309
346 350 353 350 347 344 342 341 339 335 335 337 334 329 323 321 320 320 316 310 307 306 305 299 297 296 295 299 296 297 298 294 290 285 288 296 297 304 300 302 306 311 313
349 353 352 348 346 345 345 343 341 339 337 333 327 325 323 320 321 324 321 312 307 304 303 303 302 302 301 297 294 297 296 288 287 287 289 293 290 296 293 302 300 310 309
353 350 346 345 344 344 343 341 340 339 336 333 327 323 321 318 323 321 317 310 306 301 302 304 303 297 299 297 299 297 292 286 284 282 284 283 286 292 298 291 294 303 300
347 344 343 341 339 338 336 338 336 332 331 325 325 324 320 323 329 326 323 315 306 303 302 302 302 305 302 303 304 302 299 298 289 280 277 280 285 288 288 285 285 289 289
342 340 338 335 332 330 332 332 330 326 321 319 321 320 319 323 328 329 329 317 309 307 304 300 300 301 304 308 306 305 306 307 304 300 292 292 294 293 286 284 290 293 290
339 336 333 330 326 326 327 325 325 322 318 317 317 319 318 319 325 327 329 317 309 308 305 302 302 302 304 308 305 302 303 307 316 311 303 300 301 301 298 285 278 282 290
332 328 326 324 320 318 317 318 318 315 311 312 313 315 313 313 322 325 325 314 309 309 306 303 301 304 309 310 306 300 299 305 309 310 308 310 311 309 308 291 282 279 291
324 322 322 321 316 311 313 316 315 314 313 313 312 312 311 312 318 325 324 318 311 305 302 303 303 304 305 309 310 303 300 305 302 299 299 303 308 309 313 312 301 284 280
324 321 320 319 317 317 319 318 318 315 313 314 313 313 312 314 318 323 323 318 315 302 298 301 304 305 306 309 310 310 312 314 303 298 294 295 301 305 312 314 312 308 301
321 317 315 318 319 322 320 320 320 320 315 315 315 313 316 320 320 323 320 319 317 309 301 302 306 309 311 309 309 313 315 307 302 301 300 302 306 303 303 308 314 310 305
313 314 316 319 323 327 322 319 318 319 318 317 316 314 314 315 319 323 321 319 320 316 315 314 313 314 315 317 316 315 311 308 302 295 296 299 302 303 298 303 303 308 306
305 307 313 315 319 319 318 312 312 309 313 313 312 309 310 311 319 321 321 317 317 313 317 311 308 312 314 315 315 317 313 311 309 306 300 298 297 299 301 306 302 297 293
299 307 310 312 316 315 316 315 307 307 316 318 318 317 311 310 316 319 318 316 318 321 319 303 301 301 301 304 305 305 303 304 306 303 298 293 293 295 298 299 295 292 292
282 293 299 303 306 311 314 316 317 319 315 319 325 327 324 322 322 320 320 321 322 325 307 300 299 300 301 300 299 298 298 301 303 294 293 295 296 297 296 294 293 295 293
275 279 283 289 295 299 302 305 306 310 315 317 323 326 329 328 328 328 327 323 314 316 301 298 297 297 298 296 295 295 297 298 294 291 288 288 288 289 291 291 289 290 292
270 274 281 287 289 291 294 296 297 299 301 307 314 321 332 329 328 333 335 318 303 301 299 295 293 293 292 292 291 290 290 288 288 287 283 283 282 280 282 283 285 288 286
262 272 280 280 282 285 288 290 293 297 301 305 309 316 325 325 323 326 327 317 307 298 296 294 294 292 290 286 285 285 287 285 284 280 280 280 278 274 275 275 274 278 279
261 266 263 267 269 274 279 282 287 291 293 297 299 305 316 315 309 310 312 310 306 304 299 294 292 290 286 283 281 280 282 281 278 276 276 276 275 272 273 270 270 272 278
253 256 256 260 266 269 275 278 280 282 287 292 297 305 313 307 301 302 303 303 301 297 297 295 290 286 282 278 277 276 275 275 275 272 271 271 270 269 271 268 264 268 269
246 252 257 259 263 268 270 271 273 277 282 288 293 299 303 301 299 299 300 301 299 297 296 293 292 291 287 281 274 270 269 268 268 267 264 263 264 263 265 262 254 256 259
242 248 254 259 262 264 268 273 275 276 279 283 288 291 294 295 295 296 298 299 299 297 294 291 287 288 290 290 282 274 270 270 268 258 251 250 255 259 259 249 247 247 250
237 242 249 253 256 261 266 272 275 278 280 281 285 288 291 292 293 294 297 299 300 297 298 295 292 292 293 290 286 281 277 274 269 257 245 240 241 246 241 236 237 242 243
237 242 246 249 252 255 259 266 273 278 280 282 284 286 288 290 290 294 298 300 302 300 298 296 294 295 295 293 287 284 281 275 266 256 244 234 233 235 231 232 234 236 230